2020-091E (47252 NORAD) Tracking and Keplerian Element Data
This shows tracking and keplerian element data for the satellite.
Feedback or suggestion? Click here.
Element | Value |
Catalog | 47252 |
Name | 2020-091E |
Epoch Orbit | 242 |
Epoch Day | 365.72323441 |
Epoch Year | 2020 |
RAAN | 102.0692 |
Inclination | 82.4986 |
Eccentricity | 0.001508 |
Argument of Perigee | 225.4886 |
Mean Anonmoly | 134.4957 |
Mean Motion | 12.43006073 |
Decay Rate | 4E-07 |
L1 | 1 47252U 20091E 20365.72323441 .00000040 00000-0 22012-3 0 9998 |
L2 | 2 47252 82.4986 102.0692 0015080 225.4886 134.4957 12.43006073 2425 |
Live tracking and technical data element details for 2020-091E (NORAD 47252). 2020-091E can be tracked NOW for your location showing map with azimuth and elevation plus other details from your city location.
Track the satellite on the map from your city or location and see movement details for azimuth, elevation, latitude, longitude, range, height, and movement on the map or in text.
IsCatalogInMostPopularTable: catalog: 47252, numindb: 13
Update: records affected: 1
GetName: 47252 2020-091E
Hit Count: updated at: Sat, 23 Jan 2021 16:22:39 GMT